FW6253 Weather Reports


Display with metric or nautical units.
time (UTC)temp
F
wind
direction
speed
MPH
gust
MPH
rain 1hr
in
rain 24hr
in
rain mn
in
humidity
%
barometer
mb
20260902101557 76 0 0.0 3.0 0.00 0.00 0.00 84 1014.1
20260902101052 76 206 1.0 5.0 0.00 0.00 0.00 84 1013.9
20260902100553 76 206 1.0 5.0 0.00 0.00 0.00 84 1014.1
20260902100101 77 0 1.0 5.0 0.00 0.00 0.00 84 1014.1
20260902095552 77 209 1.0 6.0 0.00 0.00 0.00 84 1014.0
20260902095052 77 207 3.0 6.0 0.00 0.00 0.00 84 1013.9
20260902094604 77 210 3.0 6.0 0.00 0.00 0.00 83 1014.0
20260902094052 77 207 2.0 6.0 0.00 0.00 0.00 83 1014.2
20260902093552 77 211 3.0 6.0 0.00 0.00 0.00 83 1014.3
20260902093057 77 210 3.0 6.0 0.00 0.00 0.00 83 1014.3
20260902092553 77 205 3.0 6.0 0.00 0.00 0.00 83 1014.3
20260902092053 77 203 3.0 6.0 0.00 0.00 0.00 82 1014.3
20260902091603 77 205 3.0 5.0 0.00 0.00 0.00 82 1014.2
20260902091055 77 198 2.0 4.0 0.00 0.00 0.00 82 1014.4
20260902090553 77 198 1.0 4.0 0.00 0.00 0.00 81 1014.3
20260902090059 77 198 2.0 5.0 0.00 0.00 0.00 81 1014.3
20260902085552 78 196 2.0 5.0 0.00 0.00 0.00 81 1014.4
20260902085119 78 196 1.0 3.0 0.00 0.00 0.00 81 1014.4
20260902084607 78 196 1.0 4.0 0.00 0.00 0.00 80 1014.5
20260902084052 78 0 1.0 4.0 0.00 0.00 0.00 80 1014.4
20260902083553 78 196 1.0 3.0 0.00 0.00 0.00 80 1014.4
20260902083059 78 0 1.0 3.0 0.00 0.00 0.00 80 1014.4
20260902082552 78 0 0.0 4.0 0.00 0.00 0.00 79 1014.4
20260902082052 78 0 0.0 4.0 0.00 0.00 0.00 79 1014.5
20260902081557 78 195 1.0 4.0 0.00 0.00 0.00 79 1014.5
20260902081054 78 195 2.0 4.0 0.00 0.00 0.00 79 1014.5
20260902080553 78 190 2.0 4.0 0.00 0.00 0.00 79 1014.5
20260902080103 78 190 2.0 4.0 0.00 0.00 0.00 78 1014.6
20260902075552 78 189 2.0 4.0 0.00 0.00 0.00 78 1014.6
20260902075055 79 187 2.0 5.0 0.00 0.00 0.00 78 1014.6
20260902074559 79 186 2.0 5.0 0.00 0.00 0.00 78 1014.6
20260902074053 79 186 2.0 6.0 0.00 0.00 0.00 78 1014.6
20260902073553 79 184 2.0 6.0 0.00 0.00 0.00 77 1014.6
20260902073057 79 181 2.0 5.0 0.00 0.00 0.00 77 1014.6
20260902072553 79 131 0.0 3.0 0.00 0.00 0.00 77 1014.5
20260902072055 79 128 0.0 3.0 0.00 0.00 0.00 77 1014.6
20260902071605 79 126 0.0 3.0 0.00 0.00 0.00 76 1014.6
20260902071055 79 126 0.0 3.0 0.00 0.00 0.00 76 1014.7
20260902070552 80 0 0.0 3.0 0.00 0.00 0.00 75 1014.6
20260902070100 80 0 0.0 3.0 0.00 0.00 0.00 75 1014.6
20260902065552 80 0 0.0 0.0 0.00 0.00 0.00 74 1014.5
20260902065053 80 0 0.0 0.0 0.00 0.00 0.00 74 1014.5
20260902064601 80 0 0.0 0.0 0.00 0.00 0.00 74 1014.6
20260902064055 80 0 0.0 0.0 0.00 0.00 0.00 73 1014.6
20260902063555 81 0 0.0 4.0 0.00 0.00 0.00 73 1014.6
20260902063109 81 0 0.0 4.0 0.00 0.00 0.00 73 1014.6
20260902062555 81 0 1.0 4.0 0.00 0.00 0.00 73 1014.6
20260902062054 81 0 0.0 4.0 0.00 0.00 0.00 73 1014.5
20260902061601 81 122 0.0 4.0 0.00 0.00 0.00 72 1014.5
20260902061053 81 0 0.0 2.0 0.00 0.00 0.00 72 1014.7
20260902060554 81 0 0.0 2.0 0.00 0.00 0.00 72 1014.6
20260902060128 82 0 0.0 5.0 0.00 0.00 0.00 71 1014.5
20260902055553 82 0 0.0 6.0 0.00 0.00 0.00 71 1014.6
20260902055056 82 130 1.0 6.0 0.00 0.00 0.00 71 1014.4
20260902054558 82 118 1.0 5.0 0.00 0.00 0.00 70 1014.3
20260902054051 82 138 0.0 3.0 0.00 0.00 0.00 70 1014.3
20260902053555 82 161 0.0 3.0 0.00 0.00 0.00 70 1014.3
20260902053102 82 178 0.0 3.0 0.00 0.00 0.00 70 1014.2
20260902052553 82 0 0.0 6.0 0.00 0.00 0.00 70 1014.2
20260902052053 82 189 1.0 6.0 0.00 0.00 0.00 70 1014.2
20260902051558 82 190 1.0 6.0 0.00 0.00 0.00 70 1014.2
20260902051053 83 200 3.0 6.0 0.00 0.00 0.00 69 1014.2
20260902050552 83 192 3.0 6.0 0.00 0.00 0.00 69 1014.2
20260902050105 83 0 1.0 5.0 0.00 0.00 0.00 69 1014.2
20260902045554 83 190 1.0 4.0 0.00 0.00 0.00 69 1014.2
20260902045054 83 0 0.0 4.0 0.00 0.00 0.00 69 1014.2
20260902044600 83 195 1.0 4.0 0.00 0.00 0.00 69 1014.2
20260902044053 83 200 1.0 7.0 0.00 0.00 0.00 69 1014.2
20260902043554 83 0 2.0 7.0 0.00 0.00 0.00 69 1014.1
20260902043107 84 196 1.0 6.0 0.00 0.00 0.00 68 1014.1
20260902042553 84 201 2.0 6.0 0.00 0.00 0.00 68 1014.0
20260902042054 84 196 1.0 5.0 0.00 0.00 0.00 68 1014.0
20260902041611 84 147 1.0 7.0 0.00 0.00 0.00 68 1014.0
20260902041052 84 0 2.0 7.0 0.00 0.00 0.00 67 1014.0
20260902040553 84 167 2.0 10.0 0.00 0.00 0.00 67 1014.0
20260902040105 85 136 1.0 10.0 0.00 0.00 0.00 67 1013.9
20260902035555 85 191 3.0 10.0 0.00 0.00 0.00 66 1013.9
20260902035052 85 155 3.0 8.0 0.00 0.00 0.00 66 1014.1
20260902034558 85 150 3.0 8.0 0.00 0.00 0.00 65 1014.0
20260902034055 86 135 2.0 9.0 0.00 0.00 0.00 65 1014.0
20260902033553 86 136 2.0 9.0 0.00 0.00 0.00 64 1014.1
20260902033108 86 134 2.0 9.0 0.00 0.00 0.00 64 1014.0
20260902032552 86 142 3.0 8.0 0.00 0.00 0.00 63 1013.8
20260902032053 87 132 2.0 9.0 0.00 0.00 0.00 63 1013.8
20260902031604 87 136 2.0 9.0 0.00 0.00 0.00 62 1013.6
20260902031053 87 117 2.0 9.0 0.00 0.00 0.00 61 1013.5
20260902030555 87 109 1.0 6.0 0.00 0.00 0.00 60 1013.5
20260902030109 87 124 1.0 6.0 0.00 0.00 0.00 60 1013.4
20260902025553 87 108 2.0 8.0 0.00 0.00 0.00 59 1013.2
20260902025053 88 140 0.0 8.0 0.00 0.00 0.00 59 1013.1
20260902024606 88 75 2.0 12.0 0.00 0.00 0.00 59 1013.1
20260902024051 88 0 2.0 12.0 0.00 0.00 0.00 58 1013.0
20260902023553 88 85 3.0 12.0 0.00 0.00 0.00 58 1012.9
20260902023059 88 95 2.0 9.0 0.00 0.00 0.00 58 1012.8
20260902022552 88 153 2.0 6.0 0.00 0.00 0.00 58 1012.8
20260902022053 88 107 0.0 3.0 0.00 0.00 0.00 58 1012.8
20260902021603 89 85 0.0 4.0 0.00 0.00 0.00 58 1012.7
20260902021053 89 0 1.0 5.0 0.00 0.00 0.00 58 1012.6
20260902020553 89 127 1.0 5.0 0.00 0.00 0.00 58 1012.6
20260902020101 89 111 0.0 6.0 0.00 0.00 0.00 57 1012.5
20260902015554 90 0 0.0 6.0 0.00 0.00 0.00 57 1012.4
20260902015050 90 87 0.0 6.0 0.00 0.00 0.00 56 1012.4
20260902014558 90 96 0.0 7.0 0.00 0.00 0.00 56 1012.2
20260902014057 90 103 1.0 7.0 0.00 0.00 0.00 55 1012.1
20260902013554 91 90 0.0 3.0 0.00 0.00 0.00 55 1012.2
20260902013054 91 0 0.0 4.0 0.00 0.00 0.00 54 1012.2
20260902012553 91 0 0.0 4.0 0.00 0.00 0.00 54 1012.1
20260902012053 91 86 1.0 6.0 0.00 0.00 0.00 53 1012.1
20260902011557 92 0 1.0 6.0 0.00 0.00 0.00 52 1012.0
20260902011054 92 51 1.0 6.0 0.00 0.00 0.00 51 1011.9
20260902010553 93 101 2.0 8.0 0.00 0.00 0.00 51 1011.7
20260902010058 93 69 2.0 8.0 0.00 0.00 0.00 50 1011.8
20260902005553 93 107 1.0 6.0 0.00 0.00 0.00 50 1011.8
20260902005056 94 111 1.0 8.0 0.00 0.00 0.00 49 1011.9
20260902004605 95 105 2.0 8.0 0.00 0.00 0.00 49 1011.8
20260902004050 96 90 2.0 8.0 0.00 0.00 0.00 47 1011.7
20260902003550 96 113 2.0 4.0 0.00 0.00 0.00 45 1011.8
20260902003102 96 0 0.0 3.0 0.00 0.00 0.00 45 1011.9
20260902002552 97 0 0.0 3.0 0.00 0.00 0.00 45 1011.9
20260902002053 97 107 0.0 3.0 0.00 0.00 0.00 45 1011.8
20260902001557 97 0 0.0 4.0 0.00 0.00 0.00 44 1011.8
20260902001053 97 114 1.0 4.0 0.00 0.00 0.00 44 1011.8
20260902000553 98 123 1.0 6.0 0.00 0.00 0.00 43 1011.8
20260902000117 98 105 1.0 7.0 0.00 0.00 0.00 43 1011.7
20260901235556 99 88 1.0 7.0 0.00 0.00 0.00 43 1011.8
20260901235052 99 91 1.0 4.0 0.00 0.00 0.00 43 1011.8
20260901234604 99 120 1.0 4.0 0.00 0.00 0.00 42 1011.8
20260901234053 99 115 1.0 4.0 0.00 0.00 0.00 43 1011.9
20260901233553 99 65 0.0 6.0 0.00 0.00 0.00 42 1011.9
20260901233058 99 0 1.0 6.0 0.00 0.00 0.00 41 1011.9
20260901232553 99 0 0.0 4.0 0.00 0.00 0.00 43 1011.9
20260901232053 99 128 1.0 5.0 0.00 0.00 0.00 41 1011.9
20260901231557 99 124 1.0 5.0 0.00 0.00 0.00 42 1011.9
20260901231053 99 53 0.0 6.0 0.00 0.00 0.00 41 1011.9
20260901230553 99 61 0.0 7.0 0.00 0.00 0.00 41 1011.9
20260901230115 99 64 2.0 8.0 0.00 0.00 0.00 41 1011.9
20260901225554 99 0 2.0 8.0 0.00 0.00 0.00 41 1012.0
20260901225053 99 102 2.0 5.0 0.00 0.00 0.00 42 1012.0
20260901224558 99 65 1.0 6.0 0.00 0.00 0.00 41 1012.0
20260901224053 99 0 2.0 7.0 0.00 0.00 0.00 41 1011.9
20260901223553 99 93 2.0 7.0 0.00 0.00 0.00 40 1011.9
20260901223114 100 89 2.0 7.0 0.00 0.00 0.00 39 1012.0
20260901222552 100 80 2.0 9.0 0.00 0.00 0.00 39 1012.0
20260901222055 100 106 1.0 9.0 0.00 0.00 0.00 40 1012.0
20260901221615 100 105 2.0 9.0 0.00 0.00 0.00 40 1011.9
20260901221053 100 132 1.0 7.0 0.00 0.00 0.00 39 1011.9
20260901220552 100 0 1.0 7.0 0.00 0.00 0.00 39 1011.9
20260901220134 100 74 1.0 6.0 0.00 0.00 0.00 40 1012.0
20260901215553 99 81 1.0 6.0 0.00 0.00 0.00 42 1012.1
20260901215055 99 145 2.0 6.0 0.00 0.00 0.00 43 1012.0
20260901214601 99 116 1.0 8.0 0.00 0.00 0.00 43 1012.0
20260901214053 99 86 3.0 8.0 0.00 0.00 0.00 42 1012.1
20260901213553 99 76 1.0 7.0 0.00 0.00 0.00 43 1012.1
20260901213119 99 86 1.0 5.0 0.00 0.00 0.00 42 1012.1
20260901212554 98 99 1.0 6.0 0.00 0.00 0.00 44 1012.3
20260901212054 98 0 3.0 9.0 0.00 0.00 0.00 44 1012.3
20260901211604 98 163 3.0 9.0 0.00 0.00 0.00 44 1012.3
20260901211053 98 70 2.0 7.0 0.00 0.00 0.00 44 1012.4
20260901210553 97 0 3.0 7.0 0.00 0.00 0.00 43 1012.6
20260901210106 98 0 2.0 7.0 0.00 0.00 0.00 43 1012.6
20260901205553 98 55 2.0 9.0 0.00 0.00 0.00 43 1012.8
20260901205052 98 53 2.0 9.0 0.00 0.00 0.00 43 1012.8
20260901204619 99 132 2.0 8.0 0.00 0.00 0.00 41 1012.9
20260901204052 99 0 2.0 7.0 0.00 0.00 0.00 42 1012.9
20260901203550 99 61 3.0 7.0 0.00 0.00 0.00 42 1013.1
20260901203110 99 10 2.0 7.0 0.00 0.00 0.00 41 1013.1
20260901202554 99 179 2.0 7.0 0.00 0.00 0.00 41 1013.2
20260901202056 99 167 4.0 7.0 0.00 0.00 0.00 43 1013.1
20260901201602 100 105 1.0 7.0 0.00 0.00 0.00 41 1013.3
20260901201054 100 93 2.0 7.0 0.00 0.00 0.00 42 1013.4
20260901200552 99 150 3.0 7.0 0.00 0.00 0.00 45 1013.5
20260901200103 98 140 2.0 5.0 0.00 0.00 0.00 43 1013.5
20260901195555 98 86 1.0 9.0 0.00 0.00 0.00 44 1013.6
20260901195053 97 123 0.0 9.0 0.00 0.00 0.00 44 1013.7
20260901194557 97 94 5.0 9.0 0.00 0.00 0.00 44 1013.8
20260901194053 97 59 3.0 8.0 0.00 0.00 0.00 44 1013.8
20260901193552 97 199 2.0 8.0 0.00 0.00 0.00 46 1013.8
20260901193125 96 76 1.0 9.0 0.00 0.00 0.00 46 1013.9
20260901192553 96 111 2.0 9.0 0.00 0.00 0.00 47 1013.9
20260901192102 96 53 2.0 9.0 0.00 0.00 0.00 47 1014.0
20260901191602 96 69 2.0 13.0 0.00 0.00 0.00 48 1013.9
20260901191056 96 117 4.0 13.0 0.00 0.00 0.00 47 1014.1
20260901190552 96 60 2.0 9.0 0.00 0.00 0.00 47 1014.1
20260901185552 96 128 1.0 9.0 0.00 0.00 0.00 46 1014.2
20260901185052 96 79 4.0 9.0 0.00 0.00 0.00 47 1014.4
20260901184606 96 155 1.0 6.0 0.00 0.00 0.00 48 1014.5
20260901184052 96 0 2.0 7.0 0.00 0.00 0.00 47 1014.6
20260901183553 96 117 2.0 7.0 0.00 0.00 0.00 46 1014.6
20260901183103 96 102 2.0 7.0 0.00 0.00 0.00 47 1014.7
20260901182555 95 113 1.0 7.0 0.00 0.00 0.00 50 1014.9
20260901182052 95 272 3.0 9.0 0.00 0.00 0.00 47 1014.9
20260901181605 95 127 2.0 9.0 0.00 0.00 0.00 46 1015.0
20260901181053 94 94 1.0 8.0 0.00 0.00 0.00 49 1015.2
20260901180552 93 0 0.0 10.0 0.00 0.00 0.00 50 1015.2
20260901180105 93 119 1.0 10.0 0.00 0.00 0.00 49 1015.2
20260901175553 93 234 3.0 8.0 0.00 0.00 0.00 51 1015.3
20260901175053 93 185 2.0 7.0 0.00 0.00 0.00 50 1015.4
20260901174603 93 198 3.0 7.0 0.00 0.00 0.00 50 1015.5
20260901174055 93 148 2.0 8.0 0.00 0.00 0.00 53 1015.5
20260901173553 93 0 2.0 8.0 0.00 0.00 0.00 52 1015.5
20260901173103 92 169 2.0 6.0 0.00 0.00 0.00 53 1015.6
20260901172552 92 92 1.0 8.0 0.00 0.00 0.00 51 1015.6
20260901172052 92 195 4.0 8.0 0.00 0.00 0.00 52 1015.7
20260901171558 92 184 2.0 7.0 0.00 0.00 0.00 52 1015.8
20260901171053 92 0 2.0 9.0 0.00 0.00 0.00 52 1015.8
20260901170553 92 173 3.0 9.0 0.00 0.00 0.00 54 1015.9
20260901170108 91 0 1.0 7.0 0.00 0.00 0.00 54 1015.9
20260901165552 91 160 3.0 7.0 0.00 0.00 0.00 54 1016.0
20260901165052 91 199 1.0 6.0 0.00 0.00 0.00 54 1016.0
20260901164628 91 123 2.0 6.0 0.00 0.00 0.00 56 1016.0
20260901164055 91 0 1.0 7.0 0.00 0.00 0.00 54 1016.1
20260901163552 90 0 0.0 7.0 0.00 0.00 0.00 55 1016.0
20260901163101 90 146 1.0 7.0 0.00 0.00 0.00 57 1016.1
20260901162551 89 0 2.0 7.0 0.00 0.00 0.00 57 1016.1
20260901162052 89 135 1.0 7.0 0.00 0.00 0.00 59 1016.1
20260901161557 88 116 2.0 7.0 0.00 0.00 0.00 61 1016.2
20260901161056 88 0 1.0 4.0 0.00 0.00 0.00 64 1016.2
20260901160551 88 132 1.0 5.0 0.00 0.00 0.00 65 1016.2
20260901160106 87 0 1.0 5.0 0.00 0.00 0.00 66 1016.3
20260901155551 87 135 0.0 6.0 0.00 0.00 0.00 66 1016.3
20260901155053 87 143 2.0 6.0 0.00 0.00 0.00 66 1016.4
20260901154604 86 109 1.0 5.0 0.00 0.00 0.00 68 1016.2
20260901154052 86 114 2.0 6.0 0.00 0.00 0.00 68 1016.2
20260901153552 86 181 1.0 6.0 0.00 0.00 0.00 70 1016.3
20260901153104 85 184 0.0 5.0 0.00 0.00 0.00 71 1016.1
20260901152553 85 0 0.0 6.0 0.00 0.00 0.00 71 1016.3
20260901152051 85 184 1.0 9.0 0.00 0.00 0.00 72 1016.4
20260901151615 84 218 2.0 9.0 0.00 0.00 0.00 73 1016.3
20260901151055 84 104 0.0 4.0 0.00 0.00 0.00 75 1016.3
20260901150553 84 105 0.0 4.0 0.00 0.00 0.00 76 1016.3
20260901145553 83 0 0.0 7.0 0.00 0.00 0.00 78 1016.4
20260901145052 83 0 0.0 7.0 0.00 0.00 0.00 79 1016.3
20260901144607 82 0 0.0 5.0 0.00 0.00 0.00 80 1016.3
20260901144051 82 149 1.0 5.0 0.00 0.00 0.00 82 1016.3
20260901143552 81 196 0.0 2.0 0.00 0.00 0.00 82 1016.3
20260901143105 81 0 0.0 5.0 0.00 0.00 0.00 83 1016.3
20260901142551 80 0 1.0 5.0 0.00 0.00 0.00 83 1016.4
20260901142052 80 198 3.0 6.0 0.00 0.00 0.00 84 1016.2
20260901141606 80 189 1.0 7.0 0.00 0.00 0.00 85 1016.1
20260901141052 80 190 3.0 8.0 0.00 0.00 0.00 86 1016.3
20260901140553 79 196 3.0 8.0 0.00 0.00 0.00 86 1016.2
20260901140106 79 209 2.0 7.0 0.00 0.00 0.00 87 1016.3
20260901135552 79 210 1.0 5.0 0.00 0.00 0.00 88 1016.3
20260901135052 79 195 3.0 5.0 0.00 0.00 0.00 88 1016.2
20260901134615 78 227 2.0 5.0 0.00 0.00 0.00 89 1016.1
20260901134049 78 229 1.0 5.0 0.00 0.00 0.00 90 1016.1
20260901133549 78 207 2.0 5.0 0.00 0.00 0.00 90 1016.1
20260901133057 78 223 1.0 4.0 0.00 0.00 0.00 90 1016.1
20260901132549 77 225 0.0 4.0 0.00 0.00 0.00 90 1016.0
20260901132051 77 246 0.0 4.0 0.00 0.00 0.00 90 1016.0
20260901131603 77 246 1.0 4.0 0.00 0.00 0.00 90 1016.0
20260901131049 77 246 1.0 3.0 0.00 0.00 0.00 90 1015.9
20260901130549 77 0 0.0 0.0 0.00 0.00 0.00 90 1015.9
20260901130058 77 0 0.0 1.0 0.00 0.00 0.00 90 1015.8
20260901125552 77 0 0.0 1.0 0.00 0.00 0.00 90 1015.6
20260901125054 77 0 0.0 2.0 0.00 0.00 0.00 90 1015.5
20260901124555 77 0 0.0 2.0 0.00 0.00 0.00 90 1015.6
20260901124054 77 0 0.0 3.0 0.00 0.00 0.00 90 1015.5
20260901123550 77 0 0.0 4.0 0.00 0.00 0.00 90 1015.4
20260901123058 77 167 1.0 4.0 0.00 0.00 0.00 90 1015.4
20260901122550 77 167 0.0 4.0 0.00 0.00 0.00 90 1015.5
20260901122049 77 167 1.0 4.0 0.00 0.00 0.00 90 1015.4
20260901121601 77 167 1.0 3.0 0.00 0.00 0.00 90 1015.3
20260901121049 77 167 0.0 4.0 0.00 0.00 0.00 90 1015.3
20260901120554 77 0 0.0 4.0 0.00 0.00 0.00 90 1015.3
20260901120104 77 0 1.0 5.0 0.00 0.00 0.00 90 1015.3
20260901115550 77 167 2.0 5.0 0.00 0.00 0.00 90 1015.2
20260901115050 77 167 3.0 6.0 0.00 0.00 0.00 90 1015.2
20260901114608 77 166 2.0 6.0 0.00 0.00 0.00 90 1015.3
20260901114050 77 164 2.0 6.0 0.00 0.00 0.00 90 1015.2
20260901113549 77 163 1.0 4.0 0.00 0.00 0.00 90 1015.3
20260901113104 77 163 0.0 5.0 0.00 0.00 0.00 89 1015.3
20260901112550 78 163 1.0 5.0 0.00 0.00 0.00 89 1015.4
20260901112050 78 162 2.0 5.0 0.00 0.00 0.00 89 1015.3
20260901111603 78 161 1.0 5.0 0.00 0.00 0.00 89 1015.3
20260901111049 78 161 1.0 4.0 0.00 0.00 0.00 89 1015.3
20260901110550 78 0 0.0 4.0 0.00 0.00 0.00 89 1015.4
20260901110106 78 161 0.0 4.0 0.00 0.00 0.00 89 1015.3
20260901105550 78 0 0.0 2.0 0.00 0.00 0.00 89 1015.5
20260901105049 78 0 0.0 2.0 0.00 0.00 0.00 89 1015.5
20260901104555 78 0 0.0 0.0 0.00 0.00 0.00 89 1015.4
20260901104050 78 0 0.0 0.0 0.00 0.00 0.00 89 1015.5
20260901103552 78 0 0.0 0.0 0.00 0.00 0.00 89 1015.5
20260901103106 78 0 0.0 0.0 0.00 0.00 0.00 89 1015.7
20260901102552 78 0 0.0 2.0 0.00 0.00 0.00 89 1015.4
20260901102052 78 0 0.0 4.0 0.00 0.00 0.00 89 1015.5